Cloud_Cover
0 0 0 0 2 95 100 100 100 63 95 100 99 41 38 6 5 5 6 6 3 46 67 100 100 100 100 100 100 100 100 16 100 100 100 100 100 100 100 22 88 8 71 63 84 95 100 39 31
0 0 0 0 0 28 100 100 100 99 32 72 100 100 100 8 87 63 5 31 2 5 94 100 100 100 100 100 100 98 100 100 100 100 100 100 100 100 100 73 32 10 7 60 49 76 17 92 100
0 0 0 0 0 19 76 100 100 100 100 27 58 100 100 100 59 49 72 16 5 5 11 85 100 100 100 100 100 86 98 100 100 100 100 100 100 100 100 100 100 100 100 38 13 5 5 99 99
0 0 0 0 0 0 2 89 100 100 100 100 43 54 100 100 82 100 30 5 5 13 5 74 100 100 100 100 100 100 100 100 100 98 94 100 100 100 100 100 100 70 45 5 100 100 11 69 100
0 0 0 0 0 0 0 4 98 100 100 95 100 75 49 100 100 53 12 6 8 19 86 68 56 100 100 100 100 100 100 100 100 100 100 100 100 100 100 100 100 97 64 84 98 31 5 75 100
0 0 0 0 0 0 0 0 0 26 84 100 58 71 100 100 100 100 68 56 13 87 5 42 6 100 100 100 100 100 100 100 100 100 100 100 100 100 100 100 100 100 100 100 100 58 8 5 91
0 0 0 0 0 0 0 0 0 0 1 8 45 80 6 96 100 100 100 100 95 32 90 49 67 5 31 100 100 100 100 100 100 100 100 68 94 100 99 100 100 100 100 84 51 72 3 5 32
0 0 0 0 0 0 0 0 0 0 0 0 5 25 91 20 1 63 100 100 100 100 83 100 39 39 35 5 93 100 100 100 100 100 100 100 100 90 100 100 100 100 100 100 96 47 35 55 16
0 0 0 0 0 0 0 0 0 0 0 0 0 1 3 14 7 2 4 12 9 34 72 60 12 94 95 47 6 5 74 87 100 100 100 100 100 100 100 78 100 100 100 100 100 70 83 100 98
0 0 0 0 0 0 0 0 0 0 0 0 0 0 0 5 10 75 5 4 0 13 100 12 5 5 20 100 13 5 5 21 53 95 96 100 95 100 100 98 100 100 100 100 100 97 100 79 7
4 0 0 0 0 0 0 0 0 0 0 0 0 0 0 0 0 6 5 5 5 0 6 59 5 4 7 6 100 95 5 6 5 4 52 100 100 100 100 100 100 100 100 100 100 100 100 100 62
15 5 3 0 0 0 0 0 0 0 0 0 0 0 0 0 0 0 0 0 1 4 5 0 4 55 76 5 3 78 13 5 6 98 67 100 25 4 88 79 97 100 100 100 100 100 100 100 100
57 5 5 0 0 0 0 0 0 0 0 0 0 0 0 0 0 0 0 0 0 0 0 0 0 0 0 4 5 15 43 5 14 98 39 56 5 5 27 54 90 42 100 100 100 100 100 100 100
89 5 5 4 0 0 0 0 0 0 0 0 0 0 0 0 0 0 0 0 0 0 0 0 0 0 0 0 0 46 85 47 12 6 4 100 6 100 74 72 10 26 84 100 100 100 100 100 100
5 5 5 5 5 0 0 0 0 0 0 0 0 0 0 0 0 0 0 0 0 0 0 0 0 0 0 0 0 0 0 4 79 46 5 22 7 32 98 100 91 91 48 87 100 66 100 100 100
5 8 47 5 1 4 0 0 0 0 0 0 0 0 0 0 0 0 0 0 0 0 0 0 0 0 0 0 0 0 0 0 0 44 26 36 52 22 13 100 83 62 100 74 91 92 100 100 100
5 5 5 5 5 5 0 0 0 0 0 0 0 0 0 0 0 0 0 0 0 0 0 0 0 0 0 0 0 0 0 0 0 0 0 1 1 0 14 37 68 58 45 100 96 99 80 100 100
5 5 5 5 5 5 2 0 0 0 0 0 0 0 0 0 0 0 0 0 0 0 0 0 0 0 0 0 0 0 4 5 4 3 3 4 2 2 0 0 0 15 34 92 60 84 100 97 100
100 8 5 5 5 12 5 1 5 0 0 0 0 0 0 0 0 0 0 0 0 0 0 0 0 0 0 0 0 0 4 5 5 5 5 5 5 5 5 2 0 35 75 35 55 27 100 100 94
5 5 5 5 5 5 5 5 5 13 4 0 0 0 0 0 0 0 0 0 0 0 0 0 0 0 0 0 1 1 5 5 5 5 5 5 5 5 5 5 5 4 14 25 60 83 56 61 92
10 8 38 35 31 10 28 18 7 7 63 5 1 0 0 0 0 0 0 0 0 0 0 0 0 0 0 0 0 0 0 2 0 5 5 5 5 5 5 5 5 5 18 17 45 76 100 99 100
17 49 50 50 100 95 79 12 98 12 5 5 4 0 0 0 0 0 0 0 0 0 0 0 0 0 0 0 0 0 0 0 2 5 4 5 5 5 5 5 5 5 5 5 28 9 83 98 100
5 5 5 5 4 4 11 46 98 100 78 2 0 0 0 0 0 0 0 0 0 0 0 0 0 0 0 0 0 0 0 0 4 1 0 5 5 5 5 5 5 5 5 5 5 5 39 100 100
5 5 4 4 43 17 81 38 12 83 98 85 20 2 0 0 0 0 0 0 0 0 0 0 0 0 0 0 0 0 0 0 0 0 0 4 5 5 5 3 5 5 5 5 5 5 6 99 100
5 2 5 4 5 5 61 5 92 30 86 100 12 100 65 3 3 0 0 0 0 0 0 0 0 0 0 0 0 0 0 0 0 0 0 1 5 5 5 5 5 5 5 5 5 5 5 6 51
0 5 12 0 10 12 6 4 100 67 14 8 6 100 100 90 5 4 0 0 0 0 4 0 0 0 0 0 0 0 0 0 0 0 0 1 5 4 0 5 5 5 5 5 5 5 5 5 5
5 13 14 26 5 5 6 5 100 100 86 8 7 35 61 7 43 5 4 1 5 5 3 1 1 0 0 0 0 0 0 0 0 0 0 0 0 0 0 2 5 5 5 5 5 5 5 5 5
5 5 13 29 0 3 4 4 21 99 99 100 81 21 36 100 16 5 4 5 5 3 2 5 5 0 0 1 0 0 0 0 0 0 0 0 0 0 0 0 0 2 5 5 5 5 5 5 5
5 5 5 5 6 1 2 2 42 100 100 100 100 100 99 50 5 5 2 3 3 5 5 5 5 5 3 1 5 0 0 0 0 0 0 0 0 0 0 0 0 0 0 4 5 5 2 5 5
5 6 47 25 5 36 10 84 100 100 100 100 100 100 20 5 3 5 5 5 5 5 5 5 5 5 5 2 5 0 0 0 0 0 0 0 0 0 0 0 0 0 0 2 5 5 5 5 5